Location: Kapuskasing
(49.3803°N, 82.4001°W)
Time: 10:22:35
(UTC-04:00)

RS-44 - Pass Details

Date: 17 March 2026
Orbit: 1175 x 1510 km, 82.5° (Epoch: 11 April)

Event Time Altitude Azimuth Distance (km) Brightness Sun altitude
Rises 03:40:24 0° 349° (N) 4,398 ? -35.3°
Reaches altitude 10° 03:43:08 10° 351° (N) 3,464 ? -35.0°
Maximum altitude 03:51:31 85° 80° (E) 1,462 ? -34.1°
Enters shadow 03:52:42 71° 155° (SSE) 1,535 ? -34.0°
